Overview Statistics Trail Chart Weather Telemetry Raw packets
 

This is the latest recevied weather packets stored in our database for station/object K4IR. If no packets are shown the sender has not sent any weather packets the latest 10 day(s).

<< 45 46 47 48 49 50 51 >>
Time Temp. Humidity Pressure Rain* Wind** Luminosity Snow
1787937110 27.78° C 83% 1018.3 hPa 0 mm - 251 W/m² -
1787936510 27.78° C 83% 1018.1 hPa 0 mm - 225 W/m² -
1787935905 27.78° C 81% 1018.4 hPa 0 mm - 216 W/m² -
1787935303 27.78° C 80% 1018.2 hPa 0 mm - 238 W/m² -
1787934698 28.33° C 83% 1018.4 hPa 0 mm - 350 W/m² -
1787934097 27.78° C 82% 1018.5 hPa 0 mm - 281 W/m² -
1787933491 27.78° C 83% 1018.6 hPa 0 mm - 275 W/m² -
1787932887 27.22° C 84% 1018.7 hPa 0 mm - 239 W/m² -
1787932285 27.22° C 85% 1018.6 hPa 0 mm - 203 W/m² -
1787931685 26.67° C 87% 1018.6 hPa 0 mm - 162 W/m² -
1787931081 26.67° C 88% 1018.4 hPa 0 mm - 138 W/m² -
1787930480 26.67° C 89% 1018.4 hPa 0 mm - 141 W/m² -
1787929880 26.11° C 92% 1018.2 hPa 0 mm - 182 W/m² -
1787929274 25.56° C 96% 1018.4 hPa 0 mm - 224 W/m² -
1787928673 25° C 98% 1018.2 hPa 0 mm - 170 W/m² -
1787928070 25° C 99% 1018.3 hPa 0 mm - 141 W/m² -
1787927470 25° C 99% 1018.4 hPa 0 mm - 136 W/m² -
1787926866 25° C 99% 1018.2 hPa 0 mm - 153 W/m² -
1787926265 24.44° C 99% 1018.2 hPa 0 mm - 150 W/m² -
1787925660 24.44° C 99% 1017.9 hPa 0 mm - 145 W/m² -
1787925060 24.44° C 99% 1017.6 hPa 0 mm - 136 W/m² -
1787924460 24.44° C 99% 1017.5 hPa 0 mm - 132 W/m² -
1787923855 24.44° C 99% 1017.5 hPa 0 mm - 105 W/m² -
1787923252 24.44° C 99% 1017.6 hPa 0 mm - 109 W/m² -
1787922649 24.44° C 99% 1017.5 hPa 0 mm - 92 W/m² -

* Rain latest hour (hover to see other rain measurements)
** Current wind speed in m/s (hover to see current wind gust speed)